Time,TemperatureF,DewpointF,PressureIn,WindDirection,WindDirectionDegrees,WindSpeedMPH,WindSpeedGustMPH,Humidity,HourlyPrecipIn,Conditions,Clouds,dailyrainin,SoftwareType,DateUTC
2013-10-01 00:00:00,63.9,59.3,29.91,West,261,0.0,5.0,85,0.00,,CLR,0.00,VWS V14.01,2013-10-01 05:00:00,
2013-10-01 00:02:00,63.1,60.1,29.92,SE,129,1.0,4.0,90,0.00,,CLR,0.00,VWS V14.01,2013-10-01 05:02:00,
2013-10-01 00:07:00,63.1,60.1,29.92,South,185,0.0,5.0,90,0.00,,CLR,0.00,VWS V14.01,2013-10-01 05:07:00,
2013-10-01 00:10:00,63.1,60.1,29.92,South,184,0.0,5.0,90,0.00,,CLR,0.00,VWS V14.01,2013-10-01 05:10:00,
2013-10-01 00:13:00,63.1,60.1,29.92,SSW,211,0.0,4.0,90,0.00,,CLR,0.00,VWS V14.01,2013-10-01 05:13:00,
2013-10-01 00:18:00,63.0,60.0,29.92,WSW,252,2.0,2.0,90,0.00,,CLR,0.00,VWS V14.01,2013-10-01 05:18:00,
2013-10-01 00:20:00,63.0,60.0,29.92,NNE,30,1.0,4.0,90,0.00,,CLR,0.00,VWS V14.01,2013-10-01 05:20:00,
2013-10-01 00:23:00,63.1,60.4,29.92,SW,221,1.0,8.0,91,0.00,,CLR,0.00,VWS V14.01,2013-10-01 05:23:00,
2013-10-01 00:28:00,63.1,60.4,29.93,South,181,0.0,1.0,91,0.00,,CLR,0.00,VWS V14.01,2013-10-01 05:28:00,
2013-10-01 00:30:00,63.1,60.4,29.93,South,175,1.0,8.0,91,0.00,,CLR,0.00,VWS V14.01,2013-10-01 05:30:00,
2013-10-01 00:33:00,63.0,60.3,29.93,WSW,242,3.0,4.0,91,0.00,,CLR,0.00,VWS V14.01,2013-10-01 05:33:00,
2013-10-01 00:38:00,63.1,60.4,29.92,SW,233,0.0,1.0,91,0.00,,CLR,0.00,VWS V14.01,2013-10-01 05:38:00,
2013-10-01 00:40:00,63.1,60.4,29.92,SW,233,0.0,4.0,91,0.00,,CLR,0.00,VWS V14.01,2013-10-01 05:40:00,
2013-10-01 00:44:00,63.1,60.7,29.92,WSW,245,0.0,2.0,92,0.00,,CLR,0.00,VWS V14.01,2013-10-01 05:44:00,
2013-10-01 00:49:00,63.0,60.6,29.93,NW,305,0.0,2.0,92,0.00,,CLR,0.00,VWS V14.01,2013-10-01 05:49:00,
2013-10-01 00:50:00,63.0,60.6,29.93,West,264,1.0,3.0,92,0.00,,CLR,0.00,VWS V14.01,2013-10-01 05:50:00,
2013-10-01 00:54:00,63.1,60.7,29.93,WNW,295,1.0,4.0,92,0.00,,CLR,0.00,VWS V14.01,2013-10-01 05:54:00,
2013-10-01 00:59:00,63.1,60.7,29.93,SE,146,1.0,1.0,92,0.00,,CLR,0.00,VWS V14.01,2013-10-01 05:59:00,
2013-10-01 01:00:00,63.2,61.2,29.93,WSW,241,1.0,4.0,93,0.00,,CLR,0.00,VWS V14.01,2013-10-01 06:00:00,
2013-10-01 01:04:00,63.1,61.0,29.93,SSW,210,1.0,4.0,93,0.00,,CLR,0.00,VWS V14.01,2013-10-01 06:04:00,
2013-10-01 01:09:00,63.1,61.0,29.93,SSE,152,3.0,3.0,93,0.00,,CLR,0.00,VWS V14.01,2013-10-01 06:09:00,
2013-10-01 01:10:00,63.1,61.0,29.93,WSW,248,0.0,4.0,93,0.00,,CLR,0.00,VWS V14.01,2013-10-01 06:10:00,
2013-10-01 01:14:00,63.1,61.0,29.92,WSW,250,2.0,4.0,93,0.00,,CLR,0.00,VWS V14.01,2013-10-01 06:14:00,
2013-10-01 01:20:00,63.1,61.0,29.92,WSW,245,1.0,3.0,93,0.00,,CLR,0.00,VWS V14.01,2013-10-01 06:20:00,
2013-10-01 01:21:00,63.1,61.0,29.92,SE,146,2.0,5.0,93,0.00,,CLR,0.00,VWS V14.01,2013-10-01 06:21:00,
2013-10-01 01:26:00,63.1,61.3,29.93,SW,222,1.0,5.0,94,0.00,,CLR,0.00,VWS V14.01,2013-10-01 06:26:00,
2013-10-01 01:30:00,63.2,61.5,29.93,West,280,2.0,5.0,94,0.00,,CLR,0.00,VWS V14.01,2013-10-01 06:30:00,
2013-10-01 01:31:00,63.1,61.3,29.93,WSW,243,2.0,4.0,94,0.00,,CLR,0.00,VWS V14.01,2013-10-01 06:31:00,
2013-10-01 01:36:00,63.1,61.3,29.93,West,259,1.0,5.0,94,0.00,,CLR,0.00,VWS V14.01,2013-10-01 06:36:00,
2013-10-01 01:40:00,63.1,61.3,29.93,West,263,1.0,5.0,94,0.00,,CLR,0.00,VWS V14.01,2013-10-01 06:40:00,
2013-10-01 01:41:00,63.1,61.3,29.93,SW,223,3.0,4.0,94,0.00,,CLR,0.00,VWS V14.01,2013-10-01 06:41:00,
2013-10-01 01:46:00,63.0,61.2,29.93,West,263,1.0,6.0,94,0.00,,CLR,0.00,VWS V14.01,2013-10-01 06:46:00,
2013-10-01 01:50:00,63.0,61.2,29.93,WSW,257,2.0,6.0,94,0.00,,CLR,0.00,VWS V14.01,2013-10-01 06:50:00,
2013-10-01 01:51:00,63.0,61.2,29.93,West,266,1.0,3.0,94,0.00,,CLR,0.00,VWS V14.01,2013-10-01 06:51:00,
2013-10-01 01:57:00,62.9,61.2,29.93,WNW,294,1.0,4.0,94,0.00,,CLR,0.00,VWS V14.01,2013-10-01 06:57:00,
2013-10-01 02:00:00,63.0,61.2,29.93,WSW,239,2.0,4.0,94,0.00,,CLR,0.00,VWS V14.01,2013-10-01 07:00:00,
2013-10-01 02:02:00,62.9,61.2,29.93,WSW,245,2.0,3.0,94,0.00,,CLR,0.00,VWS V14.01,2013-10-01 07:02:00,
2013-10-01 02:07:00,62.9,61.5,29.93,WSW,253,0.0,5.0,95,0.00,,CLR,0.00,VWS V14.01,2013-10-01 07:07:00,
2013-10-01 02:10:00,62.9,61.5,29.93,WSW,253,0.0,5.0,95,0.00,,CLR,0.00,VWS V14.01,2013-10-01 07:10:00,
2013-10-01 02:12:00,62.9,61.5,29.93,WSW,246,2.0,4.0,95,0.00,,CLR,0.00,VWS V14.01,2013-10-01 07:12:00,
2013-10-01 02:17:00,62.9,61.5,29.93,WSW,257,0.0,4.0,95,0.00,,CLR,0.00,VWS V14.01,2013-10-01 07:17:00,
2013-10-01 02:20:00,62.9,61.5,29.93,West,266,0.0,4.0,95,0.00,,CLR,0.00,VWS V14.01,2013-10-01 07:20:00,
2013-10-01 02:22:00,62.8,61.3,29.93,SSW,211,0.0,3.0,95,0.00,,CLR,0.00,VWS V14.01,2013-10-01 07:22:00,
2013-10-01 02:28:00,62.7,61.2,29.93,WSW,241,1.0,3.0,95,0.00,,CLR,0.00,VWS V14.01,2013-10-01 07:28:00,
2013-10-01 02:30:00,62.7,61.2,29.93,WSW,243,1.0,3.0,95,0.00,,CLR,0.00,VWS V14.01,2013-10-01 07:30:00,
2013-10-01 02:33:00,62.6,61.2,29.93,West,273,3.0,4.0,95,0.00,,CLR,0.00,VWS V14.01,2013-10-01 07:33:00,
2013-10-01 02:38:00,62.6,61.2,29.93,West,269,0.0,0.0,95,0.00,,CLR,0.00,VWS V14.01,2013-10-01 07:38:00,
2013-10-01 02:40:00,62.6,61.2,29.93,West,269,0.0,4.0,95,0.00,,CLR,0.00,VWS V14.01,2013-10-01 07:40:00,
2013-10-01 02:43:00,62.5,61.0,29.93,West,261,1.0,4.0,95,0.00,,CLR,0.00,VWS V14.01,2013-10-01 07:43:00,
2013-10-01 02:48:00,62.4,61.0,29.94,WSW,246,1.0,2.0,95,0.00,,CLR,0.00,VWS V14.01,2013-10-01 07:48:00,
2013-10-01 02:50:00,62.5,61.0,29.93,WSW,256,1.0,4.0,95,0.00,,CLR,0.00,VWS V14.01,2013-10-01 07:50:00,
2013-10-01 02:54:00,62.4,61.0,29.94,WSW,257,3.0,4.0,95,0.00,,CLR,0.00,VWS V14.01,2013-10-01 07:54:00,
2013-10-01 02:59:00,62.4,61.0,29.94,West,280,1.0,3.0,95,0.00,,CLR,0.00,VWS V14.01,2013-10-01 07:59:00,
2013-10-01 03:00:00,62.4,61.0,29.94,WSW,257,1.0,4.0,95,0.00,,CLR,0.00,VWS V14.01,2013-10-01 08:00:00,
2013-10-01 03:04:00,62.4,61.0,29.94,SW,233,1.0,3.0,95,0.00,,CLR,0.00,VWS V14.01,2013-10-01 08:04:00,
2013-10-01 03:09:00,62.4,61.2,29.94,WSW,241,1.0,3.0,96,0.00,,CLR,0.00,VWS V14.01,2013-10-01 08:09:00,
2013-10-01 03:10:00,62.4,61.0,29.94,WSW,241,3.0,3.0,95,0.00,,CLR,0.00,VWS V14.01,2013-10-01 08:10:00,
2013-10-01 03:14:00,62.4,61.2,29.94,West,279,2.0,5.0,96,0.00,,CLR,0.00,VWS V14.01,2013-10-01 08:14:00,
2013-10-01 03:20:00,62.4,61.2,29.94,WSW,245,0.0,2.0,96,0.00,,CLR,0.00,VWS V14.01,2013-10-01 08:20:00,
2013-10-01 03:25:00,62.4,61.2,29.94,SW,236,2.0,4.0,96,0.00,,CLR,0.00,VWS V14.01,2013-10-01 08:25:00,
2013-10-01 03:30:00,62.4,61.2,29.94,West,272,0.0,2.0,96,0.00,,CLR,0.00,VWS V14.01,2013-10-01 08:30:00,
2013-10-01 03:35:00,62.5,61.3,29.94,WSW,257,0.0,5.0,96,0.00,,CLR,0.00,VWS V14.01,2013-10-01 08:35:00,
2013-10-01 03:40:00,62.5,61.3,29.94,SW,224,0.0,5.0,96,0.00,,CLR,0.00,VWS V14.01,2013-10-01 08:40:00,
2013-10-01 03:41:00,62.5,61.3,29.94,West,269,0.0,2.0,96,0.00,,CLR,0.00,VWS V14.01,2013-10-01 08:41:00,
2013-10-01 03:46:00,62.6,61.5,29.94,WSW,243,1.0,4.0,96,0.00,,CLR,0.00,VWS V14.01,2013-10-01 08:46:00,
2013-10-01 03:50:00,62.6,61.5,29.94,West,263,3.0,6.0,96,0.00,,CLR,0.00,VWS V14.01,2013-10-01 08:50:00,
2013-10-01 03:51:00,62.7,61.5,29.94,SW,233,3.0,6.0,96,0.00,,CLR,0.00,VWS V14.01,2013-10-01 08:51:00,
2013-10-01 03:56:00,62.9,61.8,29.94,West,277,2.0,6.0,96,0.00,,CLR,0.00,VWS V14.01,2013-10-01 08:56:00,
2013-10-01 04:00:00,62.8,61.7,29.94,SSW,203,3.0,6.0,96,0.00,,CLR,0.00,VWS V14.01,2013-10-01 09:00:00,
2013-10-01 04:02:00,62.9,61.8,29.94,WSW,255,1.0,5.0,96,0.00,,CLR,0.00,VWS V14.01,2013-10-01 09:02:00,
2013-10-01 04:07:00,63.1,61.9,29.94,WSW,246,2.0,6.0,96,0.00,,CLR,0.00,VWS V14.01,2013-10-01 09:07:00,
2013-10-01 04:10:00,63.1,61.9,29.94,WNW,295,1.0,6.0,96,0.00,,CLR,0.00,VWS V14.01,2013-10-01 09:10:00,
2013-10-01 04:12:00,63.1,61.9,29.94,WSW,253,2.0,4.0,96,0.00,,CLR,0.00,VWS V14.01,2013-10-01 09:12:00,
2013-10-01 04:17:00,63.2,62.0,29.95,West,277,0.0,4.0,96,0.00,,CLR,0.00,VWS V14.01,2013-10-01 09:17:00,
2013-10-01 04:20:00,63.2,62.0,29.95,WNW,285,1.0,4.0,96,0.00,,CLR,0.00,VWS V14.01,2013-10-01 09:20:00,
2013-10-01 04:22:00,63.3,62.1,29.95,SE,146,3.0,4.0,96,0.00,,CLR,0.00,VWS V14.01,2013-10-01 09:22:00,
2013-10-01 04:27:00,63.3,62.1,29.95,WSW,252,2.0,4.0,96,0.00,,CLR,0.00,VWS V14.01,2013-10-01 09:27:00,
2013-10-01 04:30:00,63.3,62.1,29.95,West,264,1.0,4.0,96,0.00,,CLR,0.00,VWS V14.01,2013-10-01 09:30:00,
2013-10-01 04:32:00,63.4,62.2,29.95,WSW,253,0.0,5.0,96,0.00,,CLR,0.00,VWS V14.01,2013-10-01 09:32:00,
2013-10-01 04:38:00,63.4,62.2,29.96,WSW,255,1.0,1.0,96,0.00,,CLR,0.00,VWS V14.01,2013-10-01 09:38:00,
2013-10-01 04:40:00,63.5,62.3,29.95,WSW,253,0.0,5.0,96,0.00,,CLR,0.00,VWS V14.01,2013-10-01 09:40:00,
2013-10-01 04:43:00,63.5,62.3,29.96,WSW,238,1.0,4.0,96,0.00,,BKN010,0.00,VWS V14.01,2013-10-01 09:43:00,
2013-10-01 04:48:00,63.5,62.3,29.96,WSW,238,3.0,4.0,96,0.00,,BKN010,0.00,VWS V14.01,2013-10-01 09:48:00,
2013-10-01 04:50:00,63.5,62.3,29.96,SSE,165,2.0,5.0,96,0.00,,CLR,0.00,VWS V14.01,2013-10-01 09:50:00,
2013-10-01 04:53:00,63.6,62.4,29.96,West,264,1.0,6.0,96,0.00,,BKN010,0.00,VWS V14.01,2013-10-01 09:53:00,
2013-10-01 04:59:00,63.6,62.4,29.96,WSW,238,3.0,4.0,96,0.00,,BKN010,0.00,VWS V14.01,2013-10-01 09:59:00,
2013-10-01 05:00:00,63.6,62.4,29.96,SW,219,0.0,6.0,96,0.00,,CLR,0.00,VWS V14.01,2013-10-01 10:00:00,
2013-10-01 05:04:00,63.6,62.4,29.96,SSW,203,2.0,4.0,96,0.00,,OVC008,0.00,VWS V14.01,2013-10-01 10:04:00,
2013-10-01 05:09:00,63.7,62.5,29.96,South,184,1.0,3.0,96,0.00,,OVC008,0.00,VWS V14.01,2013-10-01 10:09:00,
2013-10-01 05:10:00,63.7,62.5,29.96,SSW,210,1.0,4.0,96,0.00,,CLR,0.00,VWS V14.01,2013-10-01 10:10:00,
2013-10-01 05:14:00,63.7,62.5,29.96,WSW,245,0.0,3.0,96,0.00,,OVC008,0.00,VWS V14.01,2013-10-01 10:14:00,
2013-10-01 05:20:00,63.8,62.6,29.96,West,270,1.0,4.0,96,0.00,,OVC008,0.00,VWS V14.01,2013-10-01 10:20:00,
2013-10-01 05:25:00,63.9,62.7,29.97,SSE,161,2.0,4.0,96,0.00,,OVC008,0.00,VWS V14.01,2013-10-01 10:25:00,
2013-10-01 05:30:00,64.0,62.8,29.97,WSW,246,2.0,3.0,96,0.00,,OVC008,0.00,VWS V14.01,2013-10-01 10:30:00,
2013-10-01 05:35:00,64.0,62.8,29.97,WSW,256,1.0,4.0,96,0.00,,OVC008,0.00,VWS V14.01,2013-10-01 10:35:00,
2013-10-01 05:40:00,64.1,62.9,29.97,SSE,167,2.0,3.0,96,0.00,,,0.00,VWS V14.01,2013-10-01 10:40:00,
2013-10-01 05:46:00,64.2,63.0,29.97,SW,219,1.0,8.0,96,0.00,,,0.00,VWS V14.01,2013-10-01 10:46:00,
2013-10-01 05:50:00,64.2,63.0,29.97,WSW,238,2.0,8.0,96,0.00,,CLR,0.00,VWS V14.01,2013-10-01 10:50:00,
2013-10-01 05:51:00,64.2,63.0,29.97,West,276,1.0,3.0,96,0.00,,,0.00,VWS V14.01,2013-10-01 10:51:00,
2013-10-01 05:56:00,64.3,63.1,29.97,WNW,287,4.0,5.0,96,0.00,,,0.00,VWS V14.01,2013-10-01 10:56:00,
2013-10-01 06:00:00,64.3,63.1,29.97,WSW,250,3.0,8.0,96,0.00,,CLR,0.00,VWS V14.01,2013-10-01 11:00:00,
2013-10-01 06:01:00,64.3,63.1,29.97,WNW,300,5.0,8.0,96,0.00,,,0.00,VWS V14.01,2013-10-01 11:01:00,
2013-10-01 06:06:00,64.3,63.1,29.97,WSW,245,5.0,8.0,96,0.00,,,0.00,VWS V14.01,2013-10-01 11:06:00,
2013-10-01 06:10:00,64.4,63.2,29.97,ENE,61,2.0,8.0,96,0.00,,CLR,0.00,VWS V14.01,2013-10-01 11:10:00,
2013-10-01 06:11:00,64.4,63.2,29.97,WSW,249,2.0,5.0,96,0.00,,,0.00,VWS V14.01,2013-10-01 11:11:00,
2013-10-01 06:16:00,64.4,63.2,29.97,SSE,148,0.0,5.0,96,0.00,,,0.00,VWS V14.01,2013-10-01 11:16:00,
2013-10-01 06:20:00,64.4,63.2,29.97,SW,232,0.0,5.0,96,0.00,,CLR,0.00,VWS V14.01,2013-10-01 11:20:00,
2013-10-01 06:21:00,64.4,63.2,29.97,WSW,255,0.0,4.0,96,0.00,,,0.00,VWS V14.01,2013-10-01 11:21:00,
2013-10-01 06:27:00,64.4,63.2,29.98,SSW,205,0.0,5.0,96,0.00,,,0.00,VWS V14.01,2013-10-01 11:27:00,
2013-10-01 06:30:00,64.4,63.2,29.98,SSW,201,0.0,5.0,96,0.00,,CLR,0.00,VWS V14.01,2013-10-01 11:30:00,
2013-10-01 06:32:00,64.5,63.3,29.98,SSE,160,3.0,5.0,96,0.00,,,0.00,VWS V14.01,2013-10-01 11:32:00,
2013-10-01 06:37:00,64.4,63.2,29.98,West,281,2.0,5.0,96,0.00,,,0.00,VWS V14.01,2013-10-01 11:37:00,
2013-10-01 06:40:00,64.5,63.3,29.98,West,277,2.0,5.0,96,0.00,,CLR,0.00,VWS V14.01,2013-10-01 11:40:00,
2013-10-01 06:42:00,64.4,63.2,29.98,South,187,0.0,6.0,96,0.00,,,0.00,VWS V14.01,2013-10-01 11:42:00,
2013-10-01 06:47:00,64.4,63.2,29.98,West,264,1.0,6.0,96,0.00,,,0.00,VWS V14.01,2013-10-01 11:47:00,
2013-10-01 06:50:00,64.4,63.2,29.98,West,271,1.0,6.0,96,0.00,,CLR,0.00,VWS V14.01,2013-10-01 11:50:00,
2013-10-01 06:53:00,64.5,63.3,29.98,WSW,257,3.0,4.0,96,0.00,,,0.00,VWS V14.01,2013-10-01 11:53:00,
2013-10-01 06:58:00,64.4,62.9,29.98,WSW,239,1.0,2.0,95,0.00,,,0.00,VWS V14.01,2013-10-01 11:58:00,
2013-10-01 07:00:00,64.4,62.9,29.98,WSW,238,1.0,5.0,95,0.00,,CLR,0.00,VWS V14.01,2013-10-01 12:00:00,
2013-10-01 07:03:00,64.4,62.9,29.98,WSW,239,2.0,4.0,95,0.00,,,0.00,VWS V14.01,2013-10-01 12:03:00,
2013-10-01 07:08:00,64.5,63.0,29.98,WNW,289,2.0,3.0,95,0.00,,,0.00,VWS V14.01,2013-10-01 12:08:00,
2013-10-01 07:10:00,64.5,63.0,29.98,WSW,238,2.0,5.0,95,0.00,,CLR,0.00,VWS V14.01,2013-10-01 12:10:00,
2013-10-01 07:13:00,64.5,63.3,29.98,South,169,4.0,7.0,96,0.00,,,0.00,VWS V14.01,2013-10-01 12:13:00,
2013-10-01 07:18:00,64.5,63.0,29.98,SW,221,1.0,2.0,95,0.00,,,0.00,VWS V14.01,2013-10-01 12:18:00,
2013-10-01 07:20:00,64.5,63.0,29.98,WSW,255,2.0,7.0,95,0.00,,CLR,0.00,VWS V14.01,2013-10-01 12:20:00,
2013-10-01 07:23:00,64.5,63.0,29.98,SW,229,0.0,6.0,95,0.00,,,0.00,VWS V14.01,2013-10-01 12:23:00,
2013-10-01 07:29:00,64.5,63.0,29.98,West,262,4.0,8.0,95,0.00,,,0.00,VWS V14.01,2013-10-01 12:29:00,
2013-10-01 07:30:00,64.5,63.0,29.98,SW,233,3.0,6.0,95,0.00,,CLR,0.00,VWS V14.01,2013-10-01 12:30:00,
2013-10-01 07:34:00,64.6,63.1,29.98,SW,224,1.0,8.0,95,0.00,,,0.00,VWS V14.01,2013-10-01 12:34:00,
2013-10-01 07:39:00,64.6,63.1,29.98,WSW,253,2.0,2.0,95,0.00,,,0.00,VWS V14.01,2013-10-01 12:39:00,
2013-10-01 07:40:00,64.6,63.1,29.98,West,270,2.0,8.0,95,0.00,,CLR,0.00,VWS V14.01,2013-10-01 12:40:00,
2013-10-01 07:44:00,64.6,63.1,29.98,SSE,153,1.0,6.0,95,0.00,,,0.00,VWS V14.01,2013-10-01 12:44:00,
2013-10-01 07:49:00,64.7,63.2,29.98,West,278,1.0,2.0,95,0.00,,,0.00,VWS V14.01,2013-10-01 12:49:00,
2013-10-01 07:50:00,64.6,63.1,29.98,WSW,255,0.0,6.0,95,0.00,,CLR,0.00,VWS V14.01,2013-10-01 12:50:00,
2013-10-01 07:55:00,64.7,63.2,29.99,NNE,23,2.0,4.0,95,0.00,,,0.00,VWS V14.01,2013-10-01 12:55:00,
2013-10-01 08:00:00,64.7,63.5,29.99,West,262,2.0,4.0,96,0.00,,,0.00,VWS V14.01,2013-10-01 13:00:00,
2013-10-01 08:05:00,64.8,63.3,29.99,West,259,2.0,6.0,95,0.00,,,0.00,VWS V14.01,2013-10-01 13:05:00,
2013-10-01 08:10:00,64.8,63.3,29.99,WSW,243,0.0,3.0,95,0.00,,,0.00,VWS V14.01,2013-10-01 13:10:00,
2013-10-01 08:15:00,64.9,63.4,29.99,West,281,1.0,3.0,95,0.00,,,0.00,VWS V14.01,2013-10-01 13:15:00,
2013-10-01 08:20:00,64.9,63.4,29.99,NW,319,0.0,5.0,95,0.00,,,0.00,VWS V14.01,2013-10-01 13:20:00,
2013-10-01 08:25:00,64.9,63.4,29.99,WSW,238,1.0,8.0,95,0.00,,,0.00,VWS V14.01,2013-10-01 13:25:00,
2013-10-01 08:30:00,65.0,63.5,29.99,West,270,0.0,8.0,95,0.00,,CLR,0.00,VWS V14.01,2013-10-01 13:30:00,
2013-10-01 08:31:00,64.9,63.4,29.99,WSW,253,2.0,9.0,95,0.00,,,0.00,VWS V14.01,2013-10-01 13:31:00,
2013-10-01 08:36:00,64.9,63.4,29.99,WNW,283,2.0,9.0,95,0.00,,,0.00,VWS V14.01,2013-10-01 13:36:00,
2013-10-01 08:40:00,64.9,63.4,29.99,SW,231,2.0,9.0,95,0.00,,CLR,0.00,VWS V14.01,2013-10-01 13:40:00,
2013-10-01 08:41:00,64.9,63.4,30.00,SW,228,1.0,3.0,95,0.00,,,0.00,VWS V14.01,2013-10-01 13:41:00,
2013-10-01 08:46:00,65.0,63.5,30.00,WSW,245,1.0,3.0,95,0.00,,,0.00,VWS V14.01,2013-10-01 13:46:00,
2013-10-01 08:50:00,65.0,63.5,30.00,WSW,243,1.0,3.0,95,0.00,,CLR,0.00,VWS V14.01,2013-10-01 13:50:00,
2013-10-01 08:52:00,65.0,63.5,30.00,WSW,240,3.0,4.0,95,0.00,,,0.00,VWS V14.01,2013-10-01 13:52:00,
2013-10-01 08:57:00,65.0,63.5,29.99,WSW,253,2.0,4.0,95,0.00,,,0.00,VWS V14.01,2013-10-01 13:57:00,
2013-10-01 09:00:00,65.0,63.5,29.99,WSW,248,2.0,4.0,95,0.00,,CLR,0.00,VWS V14.01,2013-10-01 14:00:00,
2013-10-01 09:02:00,65.0,63.5,29.99,WSW,243,1.0,4.0,95,0.00,,,0.00,VWS V14.01,2013-10-01 14:02:00,
2013-10-01 09:07:00,65.1,63.9,29.99,West,270,0.0,5.0,96,0.00,,,0.00,VWS V14.01,2013-10-01 14:07:00,
2013-10-01 09:10:00,65.1,63.9,29.99,West,264,1.0,5.0,96,0.00,,CLR,0.00,VWS V14.01,2013-10-01 14:10:00,
2013-10-01 09:13:00,65.1,63.6,29.99,SSW,210,1.0,6.0,95,0.00,,,0.00,VWS V14.01,2013-10-01 14:13:00,
2013-10-01 09:18:00,65.2,63.7,30.00,ENE,65,0.0,0.0,95,0.00,,,0.00,VWS V14.01,2013-10-01 14:18:00,
2013-10-01 09:20:00,65.2,63.7,30.00,ENE,65,0.0,6.0,95,0.00,,CLR,0.00,VWS V14.01,2013-10-01 14:20:00,
2013-10-01 09:23:00,65.3,63.8,30.00,WSW,256,0.0,4.0,95,0.00,,,0.00,VWS V14.01,2013-10-01 14:23:00,
2013-10-01 09:28:00,65.4,63.9,29.99,SSE,166,2.0,2.0,95,0.00,,,0.00,VWS V14.01,2013-10-01 14:28:00,
2013-10-01 09:30:00,65.4,63.9,30.00,South,190,2.0,6.0,95,0.00,,OVC018,0.00,VWS V14.01,2013-10-01 14:30:00,
2013-10-01 09:33:00,65.5,64.0,30.00,WSW,239,1.0,5.0,95,0.00,,,0.00,VWS V14.01,2013-10-01 14:33:00,
2013-10-01 09:38:00,65.6,64.1,30.00,SSW,201,1.0,4.0,95,0.00,,,0.00,VWS V14.01,2013-10-01 14:38:00,
2013-10-01 09:40:00,65.6,64.1,30.00,WSW,256,2.0,5.0,95,0.00,,CLR,0.00,VWS V14.01,2013-10-01 14:40:00,
2013-10-01 09:43:00,65.7,64.2,30.00,WSW,248,3.0,5.0,95,0.00,,,0.00,VWS V14.01,2013-10-01 14:43:00,
2013-10-01 09:49:00,65.9,64.4,30.00,WSW,252,1.0,3.0,95,0.00,,,0.00,VWS V14.01,2013-10-01 14:49:00,
2013-10-01 09:50:00,65.8,64.3,30.00,North,4,3.0,5.0,95,0.00,,CLR,0.00,VWS V14.01,2013-10-01 14:50:00,
2013-10-01 09:54:00,66.0,64.5,30.00,SSE,160,3.0,7.0,95,0.00,,,0.00,VWS V14.01,2013-10-01 14:54:00,
2013-10-01 09:59:00,66.3,64.5,29.99,SSW,210,2.0,3.0,94,0.00,,,0.00,VWS V14.01,2013-10-01 14:59:00,
2013-10-01 10:00:00,66.2,64.4,29.99,WSW,243,1.0,7.0,94,0.00,,CLR,0.00,VWS V14.01,2013-10-01 15:00:00,
2013-10-01 10:04:00,66.5,64.7,29.99,WSW,238,2.0,5.0,94,0.00,,,0.00,VWS V14.01,2013-10-01 15:04:00,
2013-10-01 10:09:00,66.7,64.6,30.00,WSW,240,3.0,3.0,93,0.00,,,0.00,VWS V14.01,2013-10-01 15:09:00,
2013-10-01 10:10:00,66.6,64.8,30.00,SW,229,1.0,5.0,94,0.00,,CLR,0.00,VWS V14.01,2013-10-01 15:10:00,
2013-10-01 10:14:00,66.9,64.8,29.99,WSW,254,1.0,4.0,93,0.00,,,0.00,VWS V14.01,2013-10-01 15:14:00,
2013-10-01 10:20:00,67.1,64.7,29.99,SW,229,2.0,6.0,92,0.00,,OVC008,0.00,VWS V14.01,2013-10-01 15:20:00,
2013-10-01 10:25:00,67.4,65.0,29.99,West,262,2.0,7.0,92,0.00,,OVC008,0.00,VWS V14.01,2013-10-01 15:25:00,
2013-10-01 10:30:00,67.6,65.2,29.99,WSW,238,2.0,5.0,92,0.00,,OVC008,0.00,VWS V14.01,2013-10-01 15:30:00,
2013-10-01 10:35:00,67.9,65.2,29.99,SW,219,0.0,8.0,91,0.00,,OVC008,0.00,VWS V14.01,2013-10-01 15:35:00,
2013-10-01 10:40:00,68.1,65.4,29.99,SW,222,3.0,4.0,91,0.00,,OVC010,0.00,VWS V14.01,2013-10-01 15:40:00,
2013-10-01 10:46:00,68.4,65.4,29.99,West,269,1.0,4.0,90,0.00,,OVC010,0.00,VWS V14.01,2013-10-01 15:46:00,
2013-10-01 10:50:00,68.5,65.5,29.99,WNW,301,1.0,5.0,90,0.00,,CLR,0.00,VWS V14.01,2013-10-01 15:50:00,
2013-10-01 10:51:00,68.6,65.2,29.99,WNW,287,3.0,6.0,89,0.00,,OVC010,0.00,VWS V14.01,2013-10-01 15:51:00,
2013-10-01 10:56:00,68.8,65.4,29.99,West,259,3.0,6.0,89,0.00,,OVC010,0.00,VWS V14.01,2013-10-01 15:56:00,
2013-10-01 11:00:00,68.8,65.4,29.99,WSW,258,3.0,6.0,89,0.00,,CLR,0.00,VWS V14.01,2013-10-01 16:00:00,
2013-10-01 11:02:00,68.9,65.5,29.99,West,281,1.0,6.0,89,0.00,,OVC010,0.00,VWS V14.01,2013-10-01 16:02:00,
2013-10-01 11:07:00,69.2,65.8,29.99,West,266,0.0,6.0,89,0.00,,OVC010,0.00,VWS V14.01,2013-10-01 16:07:00,
2013-10-01 11:10:00,69.2,65.5,29.99,West,263,3.0,6.0,88,0.00,,CLR,0.00,VWS V14.01,2013-10-01 16:10:00,
2013-10-01 11:12:00,69.4,65.7,29.99,WSW,257,3.0,4.0,88,0.00,,OVC012,0.00,VWS V14.01,2013-10-01 16:12:00,
2013-10-01 11:17:00,69.5,65.8,29.99,South,174,3.0,6.0,88,0.00,,OVC012,0.00,VWS V14.01,2013-10-01 16:17:00,
2013-10-01 11:20:00,69.5,65.8,29.99,WSW,256,1.0,6.0,88,0.00,,CLR,0.00,VWS V14.01,2013-10-01 16:20:00,
2013-10-01 11:22:00,69.7,66.0,29.99,East,83,1.0,4.0,88,0.00,,OVC012,0.00,VWS V14.01,2013-10-01 16:22:00,
2013-10-01 11:27:00,69.9,65.9,29.99,SW,227,3.0,5.0,87,0.00,,OVC012,0.00,VWS V14.01,2013-10-01 16:27:00,
2013-10-01 11:30:00,69.9,65.9,29.99,WSW,255,3.0,5.0,87,0.00,,CLR,0.00,VWS V14.01,2013-10-01 16:30:00,
2013-10-01 11:33:00,70.0,66.0,29.99,SW,236,3.0,10.0,87,0.00,,OVC012,0.00,VWS V14.01,2013-10-01 16:33:00,
2013-10-01 11:38:00,70.3,65.9,29.98,WSW,240,2.0,2.0,86,0.00,,OVC012,0.00,VWS V14.01,2013-10-01 16:38:00,
2013-10-01 11:40:00,70.2,65.8,29.98,WNW,287,1.0,10.0,86,0.00,,CLR,0.00,VWS V14.01,2013-10-01 16:40:00,
2013-10-01 11:43:00,70.6,66.2,29.99,NW,304,2.0,6.0,86,0.00,,OVC022,0.00,VWS V14.01,2013-10-01 16:43:00,
2013-10-01 11:48:00,70.9,66.5,29.99,WNW,282,0.0,0.0,86,0.00,,OVC022,0.00,VWS V14.01,2013-10-01 16:48:00,
2013-10-01 11:50:00,70.9,66.5,29.99,WNW,282,0.0,6.0,86,0.00,,CLR,0.00,VWS V14.01,2013-10-01 16:50:00,
2013-10-01 11:53:00,71.1,66.4,29.99,SSW,195,4.0,6.0,85,0.00,,OVC022,0.00,VWS V14.01,2013-10-01 16:53:00,
2013-10-01 11:58:00,71.7,66.9,29.98,WSW,255,1.0,2.0,85,0.00,,OVC022,0.00,VWS V14.01,2013-10-01 16:58:00,
2013-10-01 12:00:00,71.6,67.2,29.99,WSW,240,2.0,6.0,86,0.00,,CLR,0.00,VWS V14.01,2013-10-01 17:00:00,
2013-10-01 12:03:00,72.0,66.6,29.99,SW,230,4.0,6.0,83,0.00,,OVC021,0.00,VWS V14.01,2013-10-01 17:03:00,
2013-10-01 12:08:00,72.1,67.0,29.98,West,259,2.0,4.0,84,0.00,,OVC021,0.00,VWS V14.01,2013-10-01 17:08:00,
2013-10-01 12:10:00,72.0,66.9,29.98,West,267,3.0,6.0,84,0.00,,CLR,0.00,VWS V14.01,2013-10-01 17:10:00,
2013-10-01 12:14:00,72.7,67.2,29.98,WNW,290,2.0,4.0,83,0.00,,OVC021,0.00,VWS V14.01,2013-10-01 17:14:00,
2013-10-01 12:19:00,72.9,67.1,29.98,West,271,2.0,5.0,82,0.00,,OVC021,0.00,VWS V14.01,2013-10-01 17:19:00,
2013-10-01 12:20:00,72.8,67.0,29.98,WSW,255,3.0,7.0,82,0.00,,CLR,0.00,VWS V14.01,2013-10-01 17:20:00,
2013-10-01 12:24:00,73.1,67.3,29.98,WNW,282,1.0,8.0,82,0.00,,BKN023,0.00,VWS V14.01,2013-10-01 17:24:00,
2013-10-01 12:29:00,73.2,67.0,29.98,WSW,243,1.0,7.0,81,0.00,,BKN023,0.00,VWS V14.01,2013-10-01 17:29:00,
2013-10-01 12:30:00,73.3,67.1,29.98,SSW,211,3.0,8.0,81,0.00,,CLR,0.00,VWS V14.01,2013-10-01 17:30:00,
2013-10-01 12:34:00,73.5,67.3,29.98,NW,316,1.0,8.0,81,0.00,,BKN023,0.00,VWS V14.01,2013-10-01 17:34:00,
2013-10-01 12:40:00,73.9,67.7,29.98,WNW,297,3.0,3.0,81,0.00,,SCT023,0.00,VWS V14.01,2013-10-01 17:40:00,
2013-10-01 12:45:00,73.9,67.3,29.98,SSE,153,2.0,9.0,80,0.00,,SCT023,0.00,VWS V14.01,2013-10-01 17:45:00,
2013-10-01 12:50:00,73.7,67.2,29.98,West,263,3.0,5.0,80,0.00,,SCT023,0.00,VWS V14.01,2013-10-01 17:50:00,
2013-10-01 12:55:00,73.7,67.2,29.98,West,263,3.0,7.0,80,0.00,,SCT023,0.00,VWS V14.01,2013-10-01 17:55:00,
2013-10-01 13:00:00,73.7,67.2,29.98,SW,215,2.0,6.0,80,0.00,,SCT023,0.00,VWS V14.01,2013-10-01 18:00:00,
2013-10-01 13:05:00,74.0,67.8,29.97,WSW,255,3.0,8.0,81,0.00,,SCT023,0.00,VWS V14.01,2013-10-01 18:05:00,
2013-10-01 13:10:00,74.2,67.6,29.97,West,278,3.0,6.0,80,0.00,,SCT023,0.00,VWS V14.01,2013-10-01 18:10:00,
2013-10-01 13:16:00,74.6,67.7,29.97,South,179,1.0,8.0,79,0.00,,SCT023,0.00,VWS V14.01,2013-10-01 18:16:00,
2013-10-01 13:20:00,75.0,68.1,29.97,WNW,300,1.0,8.0,79,0.00,,CLR,0.00,VWS V14.01,2013-10-01 18:20:00,
2013-10-01 13:21:00,75.4,68.1,29.97,WSW,248,2.0,6.0,78,0.00,,CLR,0.00,VWS V14.01,2013-10-01 18:21:00,
2013-10-01 13:26:00,75.5,67.8,29.96,SSW,206,2.0,7.0,77,0.00,,CLR,0.00,VWS V14.01,2013-10-01 18:26:00,
2013-10-01 13:30:00,75.5,68.2,29.96,West,264,2.0,10.0,78,0.00,,CLR,0.00,VWS V14.01,2013-10-01 18:30:00,
2013-10-01 13:31:00,75.3,68.3,29.96,SW,236,2.0,7.0,79,0.00,,CLR,0.00,VWS V14.01,2013-10-01 18:31:00,
2013-10-01 13:36:00,76.0,68.3,29.95,ESE,121,1.0,7.0,77,0.00,,CLR,0.00,VWS V14.01,2013-10-01 18:36:00,
2013-10-01 13:40:00,76.1,68.4,29.95,WNW,293,1.0,7.0,77,0.00,,CLR,0.00,VWS V14.01,2013-10-01 18:40:00,
2013-10-01 13:41:00,76.5,68.4,29.95,WSW,239,1.0,5.0,76,0.00,,CLR,0.00,VWS V14.01,2013-10-01 18:41:00,
2013-10-01 13:47:00,77.1,68.2,29.95,West,278,3.0,6.0,74,0.00,,CLR,0.00,VWS V14.01,2013-10-01 18:47:00,
2013-10-01 13:50:00,77.2,68.3,29.95,SSE,153,4.0,6.0,74,0.00,,CLR,0.00,VWS V14.01,2013-10-01 18:50:00,
2013-10-01 13:52:00,77.4,68.1,29.95,WNW,288,1.0,7.0,73,0.00,,CLR,0.00,VWS V14.01,2013-10-01 18:52:00,
2013-10-01 13:57:00,77.5,68.2,29.95,ESE,117,2.0,7.0,73,0.00,,CLR,0.00,VWS V14.01,2013-10-01 18:57:00,
2013-10-01 14:00:00,77.5,68.2,29.95,NNW,335,3.0,7.0,73,0.00,,CLR,0.00,VWS V14.01,2013-10-01 19:00:00,
2013-10-01 14:02:00,77.9,68.6,29.95,North,11,2.0,5.0,73,0.00,,CLR,0.00,VWS V14.01,2013-10-01 19:02:00,
2013-10-01 14:07:00,77.9,68.2,29.95,SSW,200,3.0,5.0,72,0.00,,CLR,0.00,VWS V14.01,2013-10-01 19:07:00,
2013-10-01 14:10:00,78.0,68.2,29.95,NW,308,3.0,5.0,72,0.00,,CLR,0.00,VWS V14.01,2013-10-01 19:10:00,
2013-10-01 14:12:00,77.8,68.5,29.95,West,268,0.0,7.0,73,0.00,,CLR,0.00,VWS V14.01,2013-10-01 19:12:00,
2013-10-01 14:18:00,77.4,68.1,29.95,WNW,288,0.0,8.0,73,0.00,,CLR,0.00,VWS V14.01,2013-10-01 19:18:00,
2013-10-01 14:20:00,77.4,68.1,29.95,WNW,288,0.0,8.0,73,0.00,,CLR,0.00,VWS V14.01,2013-10-01 19:20:00,
2013-10-01 14:23:00,77.4,68.5,29.95,South,188,1.0,5.0,74,0.00,,CLR,0.00,VWS V14.01,2013-10-01 19:23:00,
2013-10-01 14:28:00,77.9,68.2,29.94,West,274,1.0,2.0,72,0.00,,CLR,0.00,VWS V14.01,2013-10-01 19:28:00,
2013-10-01 14:30:00,77.8,68.1,29.94,WNW,298,1.0,8.0,72,0.00,,CLR,0.00,VWS V14.01,2013-10-01 19:30:00,
2013-10-01 14:33:00,77.9,68.2,29.94,NNW,336,1.0,7.0,72,0.00,,CLR,0.00,VWS V14.01,2013-10-01 19:33:00,
2013-10-01 14:38:00,77.7,68.0,29.94,NW,309,1.0,6.0,72,0.00,,CLR,0.00,VWS V14.01,2013-10-01 19:38:00,
2013-10-01 14:40:00,77.8,68.1,29.94,West,259,3.0,7.0,72,0.00,,CLR,0.00,VWS V14.01,2013-10-01 19:40:00,
2013-10-01 14:44:00,78.0,68.2,29.94,WNW,287,1.0,8.0,72,0.00,,CLR,0.00,VWS V14.01,2013-10-01 19:44:00,
2013-10-01 14:49:00,78.0,68.2,29.94,WNW,283,1.0,2.0,72,0.00,,CLR,0.00,VWS V14.01,2013-10-01 19:49:00,
2013-10-01 14:50:00,78.0,68.2,29.94,WNW,288,2.0,8.0,72,0.00,,CLR,0.00,VWS V14.01,2013-10-01 19:50:00,
2013-10-01 14:54:00,77.7,68.4,29.94,WSW,246,1.0,6.0,73,0.00,,CLR,0.00,VWS V14.01,2013-10-01 19:54:00,
2013-10-01 14:59:00,78.1,68.3,29.94,SSW,207,4.0,5.0,72,0.00,,CLR,0.00,VWS V14.01,2013-10-01 19:59:00,
2013-10-01 15:00:00,78.0,68.2,29.94,SW,214,2.0,6.0,72,0.00,,CLR,0.00,VWS V14.01,2013-10-01 20:00:00,
2013-10-01 15:04:00,78.0,68.2,29.94,WSW,245,5.0,6.0,72,0.00,,CLR,0.00,VWS V14.01,2013-10-01 20:04:00,
2013-10-01 15:09:00,78.1,67.9,29.93,WNW,282,3.0,6.0,71,0.00,,CLR,0.00,VWS V14.01,2013-10-01 20:09:00,
2013-10-01 15:10:00,78.1,67.9,29.94,NW,316,0.0,6.0,71,0.00,,CLR,0.00,VWS V14.01,2013-10-01 20:10:00,
2013-10-01 15:16:00,78.9,68.3,29.93,West,266,2.0,6.0,70,0.00,,CLR,0.00,VWS V14.01,2013-10-01 20:16:00,
2013-10-01 15:20:00,79.1,68.5,29.93,West,276,4.0,6.0,70,0.00,,CLR,0.00,VWS V14.01,2013-10-01 20:20:00,
2013-10-01 15:22:00,79.3,68.3,29.93,West,281,2.0,5.0,69,0.00,,CLR,0.00,VWS V14.01,2013-10-01 20:22:00,
2013-10-01 15:27:00,79.3,67.4,29.93,SW,222,4.0,8.0,67,0.00,,CLR,0.00,VWS V14.01,2013-10-01 20:27:00,
2013-10-01 15:30:00,79.3,67.4,29.93,SW,225,1.0,8.0,67,0.00,,OVC018,0.00,VWS V14.01,2013-10-01 20:30:00,
2013-10-01 15:32:00,79.3,67.4,29.92,SE,124,6.0,11.0,67,0.00,,CLR,0.00,VWS V14.01,2013-10-01 20:32:00,
2013-10-01 15:37:00,78.9,67.0,29.93,SSE,161,1.0,11.0,67,0.00,,CLR,0.00,VWS V14.01,2013-10-01 20:37:00,
2013-10-01 15:40:00,78.9,67.0,29.93,North,351,2.0,11.0,67,0.00,,OVC018,0.00,VWS V14.01,2013-10-01 20:40:00,
2013-10-01 15:42:00,78.9,67.4,29.93,WNW,301,4.0,10.0,68,0.00,,CLR,0.00,VWS V14.01,2013-10-01 20:42:00,
2013-10-01 15:47:00,78.9,67.0,29.93,South,169,4.0,10.0,67,0.00,,CLR,0.00,VWS V14.01,2013-10-01 20:47:00,
2013-10-01 15:50:00,78.9,67.4,29.93,West,278,1.0,10.0,68,0.00,,OVC018,0.00,VWS V14.01,2013-10-01 20:50:00,
2013-10-01 15:52:00,78.6,67.2,29.92,West,266,2.0,7.0,68,0.00,,CLR,0.00,VWS V14.01,2013-10-01 20:52:00,
2013-10-01 15:57:00,78.3,66.9,29.93,West,262,5.0,7.0,68,0.00,,CLR,0.00,VWS V14.01,2013-10-01 20:57:00,
2013-10-01 16:00:00,78.4,67.4,29.93,SSW,204,1.0,7.0,69,0.00,,OVC018,0.00,VWS V14.01,2013-10-01 21:00:00,
2013-10-01 16:02:00,78.4,67.0,29.93,West,266,3.0,10.0,68,0.00,,CLR,0.00,VWS V14.01,2013-10-01 21:02:00,
2013-10-01 16:07:00,78.2,67.2,29.93,WSW,240,4.0,11.0,69,0.00,,CLR,0.00,VWS V14.01,2013-10-01 21:07:00,
2013-10-01 16:10:00,78.2,67.2,29.93,SW,218,4.0,11.0,69,0.00,,OVC018,0.00,VWS V14.01,2013-10-01 21:10:00,
2013-10-01 16:13:00,78.1,67.1,29.93,West,263,1.0,8.0,69,0.00,,CLR,0.00,VWS V14.01,2013-10-01 21:13:00,
2013-10-01 16:17:00,78.3,66.9,29.92,SW,218,2.0,8.0,68,0.00,,CLR,0.00,VWS V14.01,2013-10-01 21:17:00,
2013-10-01 16:20:00,78.3,66.9,29.92,WSW,253,3.0,8.0,68,0.00,,OVC018,0.00,VWS V14.01,2013-10-01 21:20:00,
2013-10-01 16:23:00,78.6,67.6,29.92,North,356,2.0,6.0,69,0.00,,CLR,0.00,VWS V14.01,2013-10-01 21:23:00,
2013-10-01 16:28:00,78.8,67.8,29.93,WNW,302,1.0,2.0,69,0.00,,CLR,0.00,VWS V14.01,2013-10-01 21:28:00,
2013-10-01 16:30:00,78.8,67.8,29.93,WNW,302,2.0,6.0,69,0.00,,OVC018,0.00,VWS V14.01,2013-10-01 21:30:00,
2013-10-01 16:33:00,78.9,67.9,29.93,WSW,248,3.0,7.0,69,0.00,,CLR,0.00,VWS V14.01,2013-10-01 21:33:00,
2013-10-01 16:38:00,78.6,67.2,29.93,WSW,256,1.0,3.0,68,0.00,,CLR,0.00,VWS V14.01,2013-10-01 21:38:00,
2013-10-01 16:40:00,78.7,67.3,29.93,WSW,255,3.0,11.0,68,0.00,,OVC018,0.00,VWS V14.01,2013-10-01 21:40:00,
2013-10-01 16:43:00,78.5,67.5,29.93,West,270,2.0,7.0,69,0.00,,CLR,0.00,VWS V14.01,2013-10-01 21:43:00,
2013-10-01 16:48:00,78.3,67.7,29.93,West,271,3.0,9.0,70,0.00,,CLR,0.00,VWS V14.01,2013-10-01 21:48:00,
2013-10-01 16:50:00,78.3,67.7,29.93,NW,309,2.0,7.0,70,0.00,,OVC018,0.00,VWS V14.01,2013-10-01 21:50:00,
2013-10-01 16:54:00,78.1,67.5,29.93,West,264,1.0,9.0,70,0.00,,CLR,0.00,VWS V14.01,2013-10-01 21:54:00,
2013-10-01 16:59:00,78.0,67.4,29.93,WNW,289,2.0,4.0,70,0.00,,CLR,0.00,VWS V14.01,2013-10-01 21:59:00,
2013-10-01 17:00:00,78.1,67.5,29.93,NW,315,4.0,9.0,70,0.00,,OVC018,0.00,VWS V14.01,2013-10-01 22:00:00,
2013-10-01 17:04:00,77.9,67.8,29.93,WSW,248,1.0,10.0,71,0.00,,CLR,0.00,VWS V14.01,2013-10-01 22:04:00,
2013-10-01 17:09:00,77.8,67.7,29.93,West,270,4.0,5.0,71,0.00,,CLR,0.00,VWS V14.01,2013-10-01 22:09:00,
2013-10-01 17:10:00,77.8,67.7,29.93,WNW,295,1.0,10.0,71,0.00,,OVC018,0.00,VWS V14.01,2013-10-01 22:10:00,
2013-10-01 17:14:00,77.6,67.9,29.94,WSW,242,1.0,6.0,72,0.00,,CLR,0.00,VWS V14.01,2013-10-01 22:14:00,
2013-10-01 17:19:00,77.4,67.7,29.94,West,269,3.0,4.0,72,0.00,,CLR,0.00,VWS V14.01,2013-10-01 22:19:00,
2013-10-01 17:20:00,77.4,67.7,29.94,West,264,0.0,6.0,72,0.00,,OVC018,0.00,VWS V14.01,2013-10-01 22:20:00,
2013-10-01 17:24:00,77.2,67.5,29.94,WSW,255,3.0,5.0,72,0.00,,CLR,0.00,VWS V14.01,2013-10-01 22:24:00,
2013-10-01 17:29:00,76.9,67.2,29.94,SSE,166,0.0,3.0,72,0.00,,CLR,0.00,VWS V14.01,2013-10-01 22:29:00,
2013-10-01 17:30:00,77.0,67.3,29.94,West,276,1.0,12.0,72,0.00,,OVC018,0.00,VWS V14.01,2013-10-01 22:30:00,
2013-10-01 17:34:00,76.6,67.3,29.94,WSW,246,2.0,4.0,73,0.00,,CLR,0.00,VWS V14.01,2013-10-01 22:34:00,
2013-10-01 17:39:00,76.4,67.1,29.94,WNW,284,1.0,3.0,73,0.00,,CLR,0.00,VWS V14.01,2013-10-01 22:39:00,
2013-10-01 17:40:00,76.5,67.2,29.94,West,262,1.0,4.0,73,0.00,,OVC018,0.00,VWS V14.01,2013-10-01 22:40:00,
2013-10-01 17:44:00,76.2,67.3,29.94,NNE,27,2.0,5.0,74,0.00,,CLR,0.00,VWS V14.01,2013-10-01 22:44:00,
2013-10-01 17:50:00,76.1,67.2,29.94,WSW,250,3.0,4.0,74,0.00,,CLR,0.00,VWS V14.01,2013-10-01 22:50:00,
2013-10-01 17:55:00,75.9,67.0,29.94,WSW,245,2.0,4.0,74,0.00,,CLR,0.00,VWS V14.01,2013-10-01 22:55:00,
2013-10-01 18:00:00,75.6,66.7,29.94,West,271,0.0,3.0,74,0.00,,CLR,0.00,VWS V14.01,2013-10-01 23:00:00,
2013-10-01 18:05:00,75.4,66.9,29.94,WSW,240,1.0,4.0,75,0.00,,CLR,0.00,VWS V14.01,2013-10-01 23:05:00,
2013-10-01 18:10:00,75.3,66.8,29.94,West,269,1.0,4.0,75,0.00,,CLR,0.00,VWS V14.01,2013-10-01 23:10:00,
2013-10-01 18:16:00,75.1,66.6,29.94,West,267,1.0,4.0,75,0.00,,CLR,0.00,VWS V14.01,2013-10-01 23:16:00,
2013-10-01 18:20:00,74.9,66.8,29.94,West,267,0.0,1.0,76,0.00,,CLR,0.00,VWS V14.01,2013-10-01 23:20:00,
2013-10-01 18:25:00,74.6,66.5,29.94,WSW,252,0.0,2.0,76,0.00,,CLR,0.00,VWS V14.01,2013-10-01 23:25:00,
2013-10-01 18:30:00,74.4,66.7,29.94,WSW,250,0.0,0.0,77,0.00,,CLR,0.00,VWS V14.01,2013-10-01 23:30:00,
2013-10-01 18:31:00,74.4,66.7,29.94,WSW,250,1.0,1.0,77,0.00,,CLR,0.00,VWS V14.01,2013-10-01 23:31:00,
2013-10-01 18:36:00,74.1,66.4,29.94,WSW,257,1.0,1.0,77,0.00,,CLR,0.00,VWS V14.01,2013-10-01 23:36:00,
2013-10-01 18:40:00,74.0,66.7,29.94,WSW,257,0.0,1.0,78,0.00,,OVC018,0.00,VWS V14.01,2013-10-01 23:40:00,
2013-10-01 18:41:00,73.8,66.5,29.95,SW,222,0.0,1.0,78,0.00,,CLR,0.00,VWS V14.01,2013-10-01 23:41:00,
2013-10-01 18:46:00,73.5,66.6,29.95,SW,222,0.0,1.0,79,0.00,,CLR,0.00,VWS V14.01,2013-10-01 23:46:00,
2013-10-01 18:50:00,73.4,66.5,29.95,SW,222,0.0,1.0,79,0.00,,OVC018,0.00,VWS V14.01,2013-10-01 23:50:00,
2013-10-01 18:51:00,73.2,66.3,29.95,SW,222,0.0,1.0,79,0.00,,CLR,0.00,VWS V14.01,2013-10-01 23:51:00,
2013-10-01 18:57:00,72.9,66.4,29.95,SW,222,0.0,1.0,80,0.00,,CLR,0.00,VWS V14.01,2013-10-01 23:57:00,
2013-10-01 19:00:00,72.8,66.3,29.95,SW,222,0.0,1.0,80,0.00,,OVC018,0.00,VWS V14.01,2013-10-02 00:00:00,
2013-10-01 19:02:00,72.7,66.2,29.95,SW,222,0.0,1.0,80,0.00,,CLR,0.00,VWS V14.01,2013-10-02 00:02:00,
2013-10-01 19:07:00,72.5,66.3,29.95,WSW,240,0.0,1.0,81,0.00,,CLR,0.00,VWS V14.01,2013-10-02 00:07:00,
2013-10-01 19:10:00,72.5,66.3,29.95,WSW,240,0.0,1.0,81,0.00,,OVC018,0.00,VWS V14.01,2013-10-02 00:10:00,
2013-10-01 19:12:00,72.4,66.2,29.95,SW,225,0.0,1.0,81,0.00,,CLR,0.00,VWS V14.01,2013-10-02 00:12:00,
2013-10-01 19:17:00,72.0,65.9,29.95,SSE,158,0.0,2.0,81,0.00,,CLR,0.00,VWS V14.01,2013-10-02 00:17:00,
2013-10-01 19:20:00,71.9,65.8,29.96,SSE,159,1.0,2.0,81,0.00,,OVC018,0.00,VWS V14.01,2013-10-02 00:20:00,
2013-10-01 19:22:00,71.5,65.7,29.96,SSE,149,0.0,2.0,82,0.00,,CLR,0.00,VWS V14.01,2013-10-02 00:22:00,
2013-10-01 19:24:00,71.3,65.9,29.95,SSE,153,1.0,2.0,83,0.00,,CLR,0.00,VWS V14.01,2013-10-02 00:24:00,
2013-10-01 19:29:00,71.2,66.1,29.96,SSE,163,0.0,2.0,84,0.00,,CLR,0.00,VWS V14.01,2013-10-02 00:29:00,
2013-10-01 19:30:00,71.2,66.1,29.96,SSE,153,0.0,2.0,84,0.00,,OVC018,0.00,VWS V14.01,2013-10-02 00:30:00,
2013-10-01 19:34:00,71.1,66.0,29.96,SSE,158,0.0,2.0,84,0.00,,CLR,0.00,VWS V14.01,2013-10-02 00:34:00,
2013-10-01 19:39:00,71.1,66.4,29.96,SSW,210,3.0,5.0,85,0.00,,CLR,0.00,VWS V14.01,2013-10-02 00:39:00,
2013-10-01 19:40:00,71.1,66.4,29.96,SSE,160,0.0,2.0,85,0.00,,OVC018,0.00,VWS V14.01,2013-10-02 00:40:00,
2013-10-01 19:45:00,71.1,66.4,29.96,SSE,155,0.0,5.0,85,0.00,,CLR,0.00,VWS V14.01,2013-10-02 00:45:00,
2013-10-01 19:50:00,70.9,66.2,29.96,South,172,0.0,2.0,85,0.00,,CLR,0.00,VWS V14.01,2013-10-02 00:50:00,
2013-10-01 19:55:00,70.8,66.4,29.96,SSE,153,1.0,2.0,86,0.00,,CLR,0.00,VWS V14.01,2013-10-02 00:55:00,
2013-10-01 20:00:00,70.7,66.7,29.97,South,191,0.0,4.0,87,0.00,,CLR,0.00,VWS V14.01,2013-10-02 01:00:00,
2013-10-01 20:05:00,70.8,66.7,29.97,SW,226,2.0,6.0,87,0.00,,CLR,0.00,VWS V14.01,2013-10-02 01:05:00,
2013-10-01 20:10:00,70.8,66.7,29.97,East,91,1.0,4.0,87,0.00,,CLR,0.00,VWS V14.01,2013-10-02 01:10:00,
2013-10-01 20:15:00,70.7,66.7,29.97,SSE,152,2.0,4.0,87,0.00,,CLR,0.00,VWS V14.01,2013-10-02 01:15:00,
2013-10-01 20:20:00,70.7,67.0,29.97,WSW,253,0.0,4.0,88,0.00,,CLR,0.00,VWS V14.01,2013-10-02 01:20:00,
2013-10-01 20:25:00,70.5,66.8,29.97,SSE,165,3.0,4.0,88,0.00,,CLR,0.00,VWS V14.01,2013-10-02 01:25:00,
2013-10-01 20:30:00,70.4,66.7,29.97,SW,226,1.0,4.0,88,0.00,,CLR,0.00,VWS V14.01,2013-10-02 01:30:00,
2013-10-01 20:35:00,70.2,66.8,29.97,SSW,195,0.0,4.0,89,0.00,,CLR,0.00,VWS V14.01,2013-10-02 01:35:00,
2013-10-01 20:40:00,70.0,66.6,29.97,South,172,0.0,5.0,89,0.00,,CLR,0.00,VWS V14.01,2013-10-02 01:40:00,
2013-10-01 20:45:00,69.9,66.5,29.97,SSW,207,2.0,6.0,89,0.00,,CLR,0.00,VWS V14.01,2013-10-02 01:45:00,
2013-10-01 20:50:00,69.8,66.7,29.97,SSE,160,0.0,2.0,90,0.00,,CLR,0.00,VWS V14.01,2013-10-02 01:50:00,
2013-10-01 20:55:00,69.7,66.6,29.97,SE,131,0.0,3.0,90,0.00,,CLR,0.00,VWS V14.01,2013-10-02 01:55:00,
2013-10-01 21:00:00,69.6,66.5,29.98,South,172,3.0,3.0,90,0.00,,CLR,0.00,VWS V14.01,2013-10-02 02:00:00,
2013-10-01 21:05:00,69.5,66.4,29.98,WSW,245,1.0,5.0,90,0.00,,CLR,0.00,VWS V14.01,2013-10-02 02:05:00,
2013-10-01 21:10:00,69.4,66.7,29.98,WSW,253,1.0,4.0,91,0.00,,CLR,0.00,VWS V14.01,2013-10-02 02:10:00,
2013-10-01 21:15:00,69.4,66.7,29.98,SSW,194,1.0,5.0,91,0.00,,CLR,0.00,VWS V14.01,2013-10-02 02:15:00,
2013-10-01 21:20:00,69.3,66.6,29.98,SW,226,1.0,4.0,91,0.00,,CLR,0.00,VWS V14.01,2013-10-02 02:20:00,
2013-10-01 21:26:00,69.2,66.5,29.98,SSW,205,0.0,5.0,91,0.00,,CLR,0.00,VWS V14.01,2013-10-02 02:26:00,
2013-10-01 21:30:00,69.2,66.5,29.98,SSW,213,0.0,5.0,91,0.00,,OVC018,0.00,VWS V14.01,2013-10-02 02:30:00,
2013-10-01 21:31:00,69.1,66.4,29.98,SE,127,3.0,4.0,91,0.00,,CLR,0.00,VWS V14.01,2013-10-02 02:31:00,
2013-10-01 21:36:00,69.1,66.7,29.98,WSW,250,1.0,4.0,92,0.00,,CLR,0.00,VWS V14.01,2013-10-02 02:36:00,
2013-10-01 21:40:00,69.1,66.7,29.98,SSE,155,1.0,4.0,92,0.00,,OVC018,0.00,VWS V14.01,2013-10-02 02:40:00,
2013-10-01 21:41:00,69.0,66.6,29.98,SE,143,3.0,3.0,92,0.00,,CLR,0.00,VWS V14.01,2013-10-02 02:41:00,
2013-10-01 21:46:00,69.0,66.6,29.98,SW,224,0.0,5.0,92,0.00,,CLR,0.00,VWS V14.01,2013-10-02 02:46:00,
2013-10-01 21:50:00,68.9,66.5,29.98,SSE,153,0.0,5.0,92,0.00,,OVC018,0.00,VWS V14.01,2013-10-02 02:50:00,
2013-10-01 21:51:00,68.9,66.5,29.98,SSE,162,1.0,1.0,92,0.00,,CLR,0.00,VWS V14.01,2013-10-02 02:51:00,
2013-10-01 21:56:00,68.9,66.5,29.98,South,169,3.0,4.0,92,0.00,,CLR,0.00,VWS V14.01,2013-10-02 02:56:00,
2013-10-01 22:00:00,68.8,66.4,29.98,SW,228,0.0,4.0,92,0.00,,OVC018,0.00,VWS V14.01,2013-10-02 03:00:00,
2013-10-01 22:01:00,68.8,66.4,29.98,WSW,243,0.0,2.0,92,0.00,,CLR,0.00,VWS V14.01,2013-10-02 03:01:00,
2013-10-01 22:06:00,68.8,66.4,29.98,West,260,1.0,2.0,92,0.00,,CLR,0.00,VWS V14.01,2013-10-02 03:06:00,
2013-10-01 22:10:00,68.8,66.4,29.98,West,267,1.0,4.0,92,0.00,,OVC018,0.00,VWS V14.01,2013-10-02 03:10:00,
2013-10-01 22:11:00,68.8,66.4,29.99,WSW,238,0.0,2.0,92,0.00,,CLR,0.00,VWS V14.01,2013-10-02 03:11:00,
2013-10-01 22:16:00,68.8,66.4,29.99,WSW,252,0.0,5.0,92,0.00,,CLR,0.00,VWS V14.01,2013-10-02 03:16:00,
2013-10-01 22:20:00,69.4,66.7,29.98,SSE,158,1.0,5.0,91,0.00,,CLR,0.00,VWS V14.01,2013-10-02 03:20:00,
2013-10-01 22:21:00,68.7,66.3,29.99,SSE,160,0.0,2.0,92,0.00,,,0.00,VWS V14.01,2013-10-02 03:21:00,
2013-10-01 22:26:00,68.7,66.6,29.98,West,280,1.0,4.0,93,0.00,,,0.00,VWS V14.01,2013-10-02 03:26:00,
2013-10-01 22:30:00,68.7,66.6,29.98,WSW,245,1.0,4.0,93,0.00,,OVC018,0.00,VWS V14.01,2013-10-02 03:30:00,
2013-10-01 22:31:00,68.6,66.5,29.99,SE,129,1.0,1.0,93,0.00,,,0.00,VWS V14.01,2013-10-02 03:31:00,
2013-10-01 22:36:00,68.6,66.5,29.99,SSW,207,1.0,2.0,93,0.00,,,0.00,VWS V14.01,2013-10-02 03:36:00,
2013-10-01 22:40:00,68.6,66.5,29.99,SSW,208,0.0,2.0,93,0.00,,OVC018,0.00,VWS V14.01,2013-10-02 03:40:00,
2013-10-01 22:41:00,68.5,66.4,29.99,SW,215,1.0,5.0,93,0.00,,,0.00,VWS V14.01,2013-10-02 03:41:00,
2013-10-01 22:46:00,68.4,66.3,29.99,South,190,0.0,5.0,93,0.00,,,0.00,VWS V14.01,2013-10-02 03:46:00,
2013-10-01 22:50:00,68.5,66.4,29.99,WSW,257,0.0,5.0,93,0.00,,OVC018,0.00,VWS V14.01,2013-10-02 03:50:00,
2013-10-01 22:51:00,68.4,66.3,29.99,WSW,243,1.0,1.0,93,0.00,,,0.00,VWS V14.01,2013-10-02 03:51:00,
2013-10-01 22:57:00,68.3,66.2,29.99,WSW,252,0.0,2.0,93,0.00,,,0.00,VWS V14.01,2013-10-02 03:57:00,
2013-10-01 23:00:00,68.3,66.2,29.99,WSW,257,0.0,2.0,93,0.00,,OVC018,0.00,VWS V14.01,2013-10-02 04:00:00,
2013-10-01 23:01:00,68.3,66.2,29.99,West,269,0.0,2.0,93,0.00,,,0.00,VWS V14.01,2013-10-02 04:01:00,
2013-10-01 23:02:00,68.2,66.1,29.99,West,269,0.0,2.0,93,0.00,,,0.00,VWS V14.01,2013-10-02 04:02:00,
2013-10-01 23:03:00,68.2,66.1,29.99,WSW,249,0.0,2.0,93,0.00,,,0.00,VWS V14.01,2013-10-02 04:03:00,
2013-10-01 23:04:00,68.2,66.1,29.99,WSW,248,0.0,2.0,93,0.00,,,0.00,VWS V14.01,2013-10-02 04:04:00,
2013-10-01 23:05:00,68.2,66.1,29.99,WSW,249,0.0,2.0,93,0.00,,,0.00,VWS V14.01,2013-10-02 04:05:00,
2013-10-01 23:10:00,68.2,66.1,29.99,West,264,0.0,1.0,93,0.00,,,0.00,VWS V14.01,2013-10-02 04:10:00,
2013-10-01 23:15:00,68.1,66.3,29.99,SW,233,0.0,2.0,94,0.00,,,0.00,VWS V14.01,2013-10-02 04:15:00,
2013-10-01 23:20:00,68.0,66.2,29.99,WSW,243,0.0,0.0,94,0.00,,,0.00,VWS V14.01,2013-10-02 04:20:00,
2013-10-01 23:25:00,68.0,66.2,29.99,SSW,193,1.0,2.0,94,0.00,,,0.00,VWS V14.01,2013-10-02 04:25:00,
2013-10-01 23:30:00,67.8,66.0,29.99,SSW,193,0.0,0.0,94,0.00,,,0.00,VWS V14.01,2013-10-02 04:30:00,
2013-10-01 23:35:00,67.7,65.9,29.99,WSW,247,0.0,1.0,94,0.00,,,0.00,VWS V14.01,2013-10-02 04:35:00,
2013-10-01 23:40:00,67.6,65.8,29.99,SW,232,1.0,1.0,94,0.00,,,0.00,VWS V14.01,2013-10-02 04:40:00,
2013-10-01 23:45:00,67.6,65.8,29.99,West,274,1.0,2.0,94,0.00,,,0.00,VWS V14.01,2013-10-02 04:45:00,
2013-10-01 23:50:00,67.5,65.7,29.99,WSW,253,0.0,1.0,94,0.00,,,0.00,VWS V14.01,2013-10-02 04:50:00,
2013-10-01 23:55:00,67.4,65.6,29.99,WSW,239,1.0,4.0,94,0.00,,,0.00,VWS V14.01,2013-10-02 04:55:00,